[[{"header":{"parameterUnit":"m.s-1","parameterCategory":2,"la1":30.2991,"la2":30.254,"lo1":-89.0895,"lo2":-89.0444,"dy":0.0017,"dx":0.0017,"nx":28,"ny":28,"refTime":"2023-07-20T03:00:00:Z","depth":"0","parameterNumber":2,"parameterNumberName":"U-component_of_CURRENTS"},"data":[0,0,0,0,0,0,0,0,0,0,0,0,0,0,0,0,0,0,0,0,0,0,0,0,0,0,0,0,0,0,0,0,0,0,0,0,0,0,0,0,0,0,0,0,0,0,0,0,0,0,0,0,0,0,0,0,0,0,0.0039,0.0038,0,-0.0071,-0.0073,-0.0074,-0.0216,-0.0218,-0.0219,-0.0221,-0.0201,-0.0199,-0.0197,0,0,0,0,0,0,0,0,0,0,0,0,0,0.0097,0.0096,0.0039,0.0038,0.0037,-0.0071,-0.0073,-0.0075,-0.0215,-0.0218,-0.022,-0.0222,-0.0202,-0.0199,-0.0197,0,0,0,0,0,0,0,0,0,0,0,0,0,0.0034,0.0096,0.0039,-0.0044,-0.0052,-0.007,-0.0073,-0.0075,-0.0215,-0.0218,-0.0221,-0.0223,-0.0203,-0.02,-0.0196,-0.0117,0,0,-0.0186,-0.0184,0,0,0,0,0,0,0,0,0.0038,0.0032,-0.003,-0.0038,-0.0047,-0.0129,-0.0045,-0.0081,-0.0214,-0.0157,-0.0221,-0.0225,-0.016,-0.016,-0.0182,-0.0116,-0.0115,-0.0185,-0.0183,-0.0182,-0.0181,0,0,0,0,0,0,0,0.0042,0.0035,-0.0009,-0.0031,-0.0041,-0.0085,-0.0097,-0.0053,-0.0142,-0.0162,-0.0172,-0.0177,-0.0165,-0.0186,-0.0182,-0.0115,-0.0185,-0.0182,-0.018,-0.0179,-0.0127,-0.0128,0,0,0,0,0,0,0.0069,0.004,-0.0005,-0.0012,-0.0006,-0.0083,-0.0097,-0.0103,-0.0146,-0.0155,-0.0174,-0.0183,-0.019,-0.0186,-0.0182,-0.0132,-0.0182,-0.0178,-0.0176,-0.0126,-0.0127,-0.0128,0,0,0,0,0,0,0.0071,0.0066,-0.0001,0.0015,0.0003,-0.008,-0.0086,-0.0104,-0.0114,-0.0155,-0.0163,-0.0165,-0.0192,-0.0187,-0.0164,-0.013,-0.0177,-0.0174,-0.0125,-0.0127,-0.0128,-0.0003,0,0,0,0,0,0,0.0073,0.0067,0.0074,0.0017,0.0004,0.003,-0.0084,-0.0104,-0.0111,-0.0123,-0.0148,-0.0152,-0.0194,-0.017,-0.0161,-0.0126,-0.0171,-0.0125,-0.0126,-0.0127,-0.0007,-0.0,0.0006,0,0,0,0,0,0.0075,0.0118,0.0075,0.007,0.0015,0.0034,0.0025,-0.0049,-0.0107,-0.0076,-0.0141,-0.0151,-0.0174,-0.0165,-0.0156,-0.0119,-0.0124,-0.0126,-0.0127,-0.0009,-0.0001,0.0005,0,0,0,0,0,0,0.0139,0.0106,0.0058,0.0082,0.0072,0.0012,0.0023,-0.0018,-0.0047,-0.0064,-0.0126,-0.0131,-0.0105,-0.0132,-0.0122,-0.0122,-0.0161,-0.0161,-0.0075,-0.0068,-0.0062,-0.0057,-0.0168,0,0,0,0,0,0.016,0.0187,0.0143,0.0167,0.016,0.0096,0.0091,0.0058,0.0024,0.0005,-0.0023,-0.0072,-0.0102,-0.0101,-0.0115,-0.0076,-0.0099,-0.0065,-0.0059,-0.0053,-0.0051,-0.0066,-0.0059,-0.0133,-0.0133,-0.0133,0,0,0.0179,0.0178,0.018,0.0184,0.0151,0.0116,0.0085,0.011,0.0074,0.0024,-0.0013,-0.002,-0.0088,-0.0082,-0.0073,-0.0096,-0.0042,-0.0055,-0.0049,-0.005,-0.0067,-0.0059,-0.0052,-0.0134,-0.0134,-0.0134,0,0,0.0246,0.0239,0.0266,0.0244,0.0238,0.0195,0.0213,0.018,0.0163,0.0162,0.0079,0.01,0.0062,0.002,-0.0016,0.0028,-0.0002,0.0008,0.0051,0.0037,0.0044,0.005,0.0056,0.0062,0.0003,0.0003,0.0004,0,0.0258,0.0271,0.0284,0.0276,0.0236,0.0222,0.0197,0.0183,0.0163,0.0169,0.0164,0.0112,0.0101,0.0066,0.0058,0.0053,0.0027,0.0041,0.0051,0.0056,0.006,0.0064,0.0069,0.0009,0.0008,0.0008,0.0007,0,0.0304,0.0292,0.0313,0.0261,0.0244,0.0251,0.0202,0.0213,0.0201,0.019,0.0224,0.0218,0.0175,0.0184,0.0133,0.0144,0.0113,0.0076,0.0049,0.0076,0.0077,0.008,0.0017,0.0015,0.0014,0.0012,0,0,0.0328,0.0342,0.0323,0.0295,0.0232,0.0228,0.0185,0.017,0.0167,0.0203,0.0204,0.0209,0.025,0.021,0.0192,0.02,0.0239,0.0149,0.0146,0.0185,0.0212,0.0227,0.023,0.0194,0.0194,0.0195,0.0212,0,0.0329,0.0335,0.032,0.0259,0.0234,0.0184,0.0146,0.0138,0.016,0.0176,0.0222,0.0235,0.0238,0.0253,0.026,0.0227,0.0245,0.0238,0.0152,0.015,0.0185,0.0234,0.0274,0.0295,0.0215,0.0215,0.0215,0,0.0306,0.0329,0.03,0.0267,0.0247,0.0206,0.0155,0.0137,0.0154,0.0193,0.0231,0.0248,0.0267,0.0276,0.0268,0.0252,0.0242,0.0241,0.024,0.021,0.0169,0.0244,0.0302,0.0272,0.0219,0.0218,0.0218,0,0.0289,0.0274,0.027,0.0236,0.0207,0.0191,0.0166,0.0158,0.0174,0.0212,0.0248,0.0266,0.0286,0.0271,0.0271,0.0252,0.0272,0.0236,0.0254,0.0255,0.0251,0.0251,0.0295,0.0249,0.0249,0.0249,0.0249,0,0.025,0.0239,0.0276,0.0256,0.0265,0.0215,0.0228,0.0222,0.0231,0.0261,0.0273,0.0309,0.0283,0.0284,0.0273,0.028,0.0266,0.0281,0.0264,0.0296,0.0299,0.0238,0.0141,0.025,0.025,0.025,0.025,0,0.0219,0.0232,0.0247,0.0255,0.0262,0.0263,0.0264,0.0277,0.0289,0.0314,0.0322,0.033,0.0335,0.0325,0.031,0.0294,0.0264,0.0302,0.0357,0.0346,0.0322,0.0227,0.0136,0.0152,0.0316,0.0317,0.0317,0,0.0211,0.0219,0.0262,0.0275,0.0289,0.0302,0.0308,0.0314,0.0323,0.0336,0.0343,0.0357,0.0373,0.0376,0.0367,0.0361,0.0294,0.0382,0.0366,0.0348,0.0229,0.0137,0.0151,0.0417,0.0419,0.042,0.042,0,0.0208,0.0231,0.0246,0.0295,0.0313,0.0341,0.0349,0.0366,0.0355,0.0374,0.0383,0.0394,0.0415,0.042,0.0419,0.0427,0.0325,0.0402,0.0364,0.0302,0.0219,0.0219,0.0385,0.0429,0.0429,0.0428,0.0427,0.0427,0.0203,0.0221,0.0244,0.0287,0.0316,0.0343,0.0365,0.0371,0.0386,0.0394,0.0408,0.0431,0.0429,0.0443,0.0467,0.0479,0.0377,0.0449,0.0335,0.0248,0.0257,0.0458,0.0487,0.0486,0.0486,0.0486,0.0485,0,0.0148,0.0178,0.0225,0.0262,0.0286,0.032,0.0352,0.037,0.0385,0.0413,0.043,0.0442,0.0451,0.0463,0.0437,0.04,0.0412,0.0368,0.0261,0.0284,0.0472,0.0477,0.0529,0.0529,0.0529,0.0529,0.0529,0.0529,0.0106,0.0115,0.0152,0.0199,0.0239,0.0269,0.0289,0.0349,0.0382,0.0429,0.0443,0.0464,0.0408,0.0237,0.0211,0.024,0.0177,0.0132,0.0094,0.023,0.023,0.023,0.0221,0.0219,0.0218,0.0003,-0.0,-0.0002]},{"header":{"parameterUnit":"m.s-1","parameterCategory":2,"la1":30.2991,"la2":30.254,"lo1":-89.0895,"lo2":-89.0444,"dy":0.0017,"dx":0.0017,"nx":28,"ny":28,"refTime":"2023-07-20T03:00:00:Z","depth":"0","parameterNumber":3,"parameterNumberName":"V-component_of_CURRENTS"},"data":[0,0,0,0,0,0,0,0,0,0,0,0,0,0,0,0,0,0,0,0,0,0,0,0,0,0,0,0,0,0,0,0,0,0,0,0,0,0,0,0,0,0,0,0,0,0,0,0,0,0,0,0,0,0,0,0,0,0,-0.0807,-0.0806,0,-0.0753,-0.0753,-0.0753,-0.0746,-0.0746,-0.0746,-0.0746,-0.0681,-0.068,-0.0678,0,0,0,0,0,0,0,0,0,0,0,0,0,-0.0869,-0.0869,-0.0807,-0.0806,-0.0805,-0.0753,-0.0753,-0.0753,-0.0746,-0.0746,-0.0746,-0.0746,-0.0682,-0.068,-0.0678,0,0,0,0,0,0,0,0,0,0,0,0,0,-0.0837,-0.0869,-0.0808,-0.0791,-0.0789,-0.0753,-0.0753,-0.0753,-0.0746,-0.0746,-0.0746,-0.0746,-0.0683,-0.068,-0.0678,-0.0662,0,0,-0.067,-0.0669,0,0,0,0,0,0,0,0,-0.0839,-0.0836,-0.0795,-0.0792,-0.0789,-0.0751,-0.0751,-0.072,-0.0746,-0.0768,-0.0746,-0.0746,-0.07,-0.0696,-0.0694,-0.0659,-0.0657,-0.067,-0.0668,-0.0667,-0.0666,0,0,0,0,0,0,0,-0.0841,-0.0838,-0.0792,-0.0793,-0.079,-0.0774,-0.077,-0.0745,-0.0739,-0.0766,-0.0764,-0.0749,-0.0699,-0.0697,-0.0693,-0.0656,-0.067,-0.0667,-0.0666,-0.0665,-0.0584,-0.0583,0,0,0,0,0,0,-0.0838,-0.084,-0.0794,-0.079,-0.0808,-0.0772,-0.0769,-0.0768,-0.074,-0.0734,-0.0749,-0.0749,-0.0701,-0.0696,-0.069,-0.0688,-0.0667,-0.0665,-0.0663,-0.0584,-0.0583,-0.0583,0,0,0,0,0,0,-0.084,-0.0835,-0.0796,-0.0808,-0.0801,-0.0771,-0.0771,-0.0767,-0.0759,-0.0726,-0.0721,-0.0744,-0.0701,-0.0694,-0.0695,-0.0685,-0.0664,-0.0661,-0.0585,-0.0584,-0.0583,-0.0673,0,0,0,0,0,0,-0.0842,-0.0837,-0.0829,-0.0808,-0.08,-0.0777,-0.077,-0.0766,-0.0747,-0.0747,-0.0719,-0.0714,-0.0701,-0.0699,-0.0692,-0.0681,-0.0659,-0.0586,-0.0584,-0.0583,-0.0671,-0.0675,-0.0679,0,0,0,0,0,-0.0845,-0.0847,-0.083,-0.0823,-0.0794,-0.0776,-0.0772,-0.0753,-0.0747,-0.0747,-0.0748,-0.0714,-0.0685,-0.0699,-0.069,-0.0678,-0.0586,-0.0585,-0.0583,-0.0669,-0.0674,-0.0679,0,0,0,0,0,0,-0.0866,-0.0845,-0.0826,-0.0819,-0.0794,-0.0773,-0.0768,-0.0751,-0.075,-0.0759,-0.0729,-0.0725,-0.0715,-0.0681,-0.0696,-0.0645,-0.0619,-0.0616,-0.0686,-0.0691,-0.0695,-0.0704,-0.0657,0,0,0,0,0,-0.0865,-0.0858,-0.0833,-0.0818,-0.0817,-0.079,-0.0777,-0.077,-0.0763,-0.0762,-0.0736,-0.0712,-0.0701,-0.0688,-0.0667,-0.0651,-0.0634,-0.0626,-0.063,-0.0634,-0.0633,-0.0621,-0.0626,-0.0578,-0.0578,-0.0578,0,0,-0.086,-0.0847,-0.084,-0.082,-0.0807,-0.0795,-0.0785,-0.078,-0.0768,-0.0755,-0.0739,-0.073,-0.07,-0.0693,-0.068,-0.0666,-0.064,-0.0632,-0.0637,-0.0633,-0.0621,-0.0626,-0.063,-0.0577,-0.0577,-0.0577,0,0,-0.0859,-0.085,-0.085,-0.0835,-0.0816,-0.0803,-0.08,-0.0782,-0.0781,-0.0775,-0.0762,-0.0767,-0.0718,-0.0715,-0.0705,-0.0712,-0.0666,-0.0672,-0.0701,-0.0691,-0.0696,-0.07,-0.0702,-0.0705,-0.067,-0.0671,-0.0671,0,-0.0846,-0.0854,-0.0843,-0.0838,-0.082,-0.0805,-0.0799,-0.0796,-0.0773,-0.0781,-0.0777,-0.075,-0.0735,-0.0737,-0.0744,-0.0725,-0.0707,-0.0697,-0.0701,-0.0704,-0.0707,-0.0708,-0.071,-0.0675,-0.0674,-0.0674,-0.0674,0,-0.0849,-0.085,-0.0854,-0.0838,-0.0813,-0.0818,-0.08,-0.079,-0.0786,-0.0789,-0.0798,-0.08,-0.0776,-0.0771,-0.0767,-0.0763,-0.0742,-0.0718,-0.0701,-0.0718,-0.0717,-0.0718,-0.0681,-0.0679,-0.0678,-0.0677,0,0,-0.0838,-0.0856,-0.0855,-0.086,-0.0825,-0.0817,-0.0793,-0.0792,-0.0797,-0.0799,-0.0804,-0.0818,-0.0822,-0.0808,-0.0795,-0.0802,-0.0826,-0.0767,-0.0764,-0.0791,-0.0805,-0.0845,-0.085,-0.0798,-0.0798,-0.0798,-0.0805,0,-0.0845,-0.0857,-0.085,-0.0846,-0.0851,-0.0823,-0.0798,-0.0788,-0.0793,-0.0796,-0.0828,-0.0834,-0.0832,-0.083,-0.0836,-0.0822,-0.0828,-0.0826,-0.0764,-0.0763,-0.0815,-0.0853,-0.0791,-0.0796,-0.0806,-0.0806,-0.0806,0,-0.0844,-0.086,-0.0863,-0.087,-0.087,-0.0857,-0.0827,-0.0816,-0.0818,-0.0823,-0.0837,-0.0838,-0.0855,-0.0844,-0.0846,-0.0838,-0.0822,-0.0823,-0.0822,-0.0827,-0.0805,-0.0773,-0.0797,-0.0591,-0.0808,-0.0808,-0.0807,0,-0.0839,-0.0868,-0.0878,-0.0874,-0.0866,-0.0865,-0.0863,-0.0837,-0.0843,-0.0848,-0.0847,-0.0858,-0.0863,-0.0849,-0.0844,-0.0832,-0.0847,-0.0825,-0.0852,-0.0855,-0.0774,-0.077,-0.061,-0.0821,-0.0821,-0.0821,-0.0821,0,-0.0838,-0.0855,-0.0896,-0.0899,-0.0917,-0.0897,-0.0907,-0.0895,-0.0889,-0.0902,-0.0877,-0.0874,-0.0861,-0.0858,-0.0846,-0.0865,-0.0842,-0.0871,-0.0864,-0.0805,-0.0803,-0.0597,-0.0434,-0.0821,-0.0821,-0.0821,-0.0821,0,-0.0819,-0.0839,-0.0869,-0.0901,-0.0912,-0.0925,-0.0942,-0.0947,-0.0936,-0.0937,-0.0935,-0.0899,-0.0894,-0.0886,-0.0874,-0.088,-0.0769,-0.089,-0.0837,-0.0825,-0.0682,-0.0526,-0.0402,-0.0298,-0.093,-0.0931,-0.0932,0,-0.082,-0.0828,-0.0875,-0.0887,-0.0913,-0.0943,-0.0942,-0.0959,-0.097,-0.0953,-0.0956,-0.094,-0.092,-0.0933,-0.0943,-0.0949,-0.0762,-0.089,-0.0872,-0.0678,-0.0496,-0.0445,-0.0361,-0.0795,-0.0795,-0.0795,-0.0795,0,-0.0824,-0.0832,-0.0848,-0.0883,-0.0907,-0.0933,-0.0967,-0.0981,-0.0987,-0.0988,-0.0983,-0.0967,-0.0969,-0.0947,-0.0959,-0.0945,-0.0694,-0.0891,-0.0675,-0.0375,-0.0314,-0.0209,-0.0791,-0.0793,-0.0793,-0.0793,-0.0793,-0.0793,-0.0826,-0.0828,-0.0844,-0.0876,-0.0897,-0.0922,-0.0943,-0.0973,-0.0992,-0.0994,-0.1006,-0.0986,-0.0908,-0.0926,-0.0892,-0.0712,-0.0692,-0.06,-0.043,-0.0405,-0.0284,-0.0892,-0.0898,-0.0899,-0.09,-0.09,-0.0901,0,-0.0825,-0.0815,-0.0843,-0.0871,-0.0892,-0.0912,-0.0943,-0.0953,-0.0977,-0.0992,-0.1004,-0.0944,-0.08,-0.0682,-0.0475,-0.0266,-0.0215,-0.009,0.0074,0.0134,-0.0388,-0.036,-0.0264,-0.0265,-0.0265,-0.0265,-0.0265,-0.0265,-0.0815,-0.0819,-0.0831,-0.0864,-0.0882,-0.0905,-0.0918,-0.0927,-0.0945,-0.0949,-0.0947,-0.0947,-0.0693,-0.0112,0.0276,0.0339,0.0609,0.0604,0.0722,0.0471,0.0438,0.0407,0.0468,0.0735,0.0737,0.1178,0.1184,0.1189]}],[{"header":{"parameterUnit":"m.s-1","parameterCategory":2,"la1":30.2991,"la2":30.254,"lo1":-89.0895,"lo2":-89.0444,"dy":0.0017,"dx":0.0017,"nx":28,"ny":28,"refTime":"2023-07-20T03:00:00:Z","depth":"2","parameterNumber":2,"parameterNumberName":"U-component_of_CURRENTS"},"data":[0,0,0,0,0,0,0,0,0,0,0,0,0,0,0,0,0,0,0,0,0,0,0,0,0,0,0,0,0,0,0,0,0,0,0,0,0,0,0,0,0,0,0,0,0,0,0,0,0,0,0,0,0,0,0,0,0,0,-0.2769,-0.2769,0,-0.2648,-0.2646,-0.2644,-0.2538,-0.2537,-0.2537,-0.2536,-0.2393,-0.239,-0.2387,0,0,0,0,0,0,0,0,0,0,0,0,0,-0.2781,-0.2782,-0.2769,-0.2769,-0.2768,-0.2648,-0.2646,-0.2643,-0.2538,-0.2537,-0.2536,-0.2536,-0.2394,-0.239,-0.2386,0,0,0,0,0,0,0,0,0,0,0,0,0,-0.2723,-0.2782,-0.2769,-0.2706,-0.27,-0.2649,-0.2646,-0.2643,-0.2538,-0.2537,-0.2536,-0.2536,-0.2396,-0.2391,-0.2386,-0.237,0,0,-0.237,-0.2368,0,0,0,0,0,0,0,0,-0.2726,-0.2721,-0.2716,-0.2711,-0.2704,-0.2614,-0.2598,-0.2553,-0.2538,-0.2591,-0.2536,-0.2535,-0.2471,-0.2459,-0.2427,-0.2363,-0.2357,-0.237,-0.2367,-0.2365,-0.2363,0,0,0,0,0,0,0,-0.2731,-0.2725,-0.2713,-0.2716,-0.2708,-0.2641,-0.2632,-0.2587,-0.253,-0.2586,-0.258,-0.2579,-0.2466,-0.2433,-0.2423,-0.2355,-0.237,-0.2366,-0.2363,-0.2361,-0.2217,-0.2216,0,0,0,0,0,0,-0.2769,-0.273,-0.2717,-0.271,-0.2722,-0.2642,-0.2632,-0.2637,-0.2531,-0.2516,-0.258,-0.2575,-0.2441,-0.2429,-0.2418,-0.2341,-0.2365,-0.236,-0.2357,-0.2218,-0.2217,-0.2216,0,0,0,0,0,0,-0.277,-0.2769,-0.2722,-0.2723,-0.2713,-0.2644,-0.265,-0.2635,-0.2582,-0.2528,-0.2511,-0.2541,-0.244,-0.2425,-0.2348,-0.2337,-0.2358,-0.2353,-0.2219,-0.2218,-0.2217,-0.222,0,0,0,0,0,0,-0.2771,-0.277,-0.2758,-0.2726,-0.2715,-0.2714,-0.2651,-0.2634,-0.2588,-0.2579,-0.249,-0.2476,-0.2439,-0.2355,-0.2343,-0.233,-0.2349,-0.222,-0.2218,-0.2217,-0.2221,-0.2219,-0.2218,0,0,0,0,0,-0.2772,-0.2778,-0.2759,-0.2756,-0.2711,-0.2717,-0.2704,-0.2646,-0.2587,-0.2587,-0.249,-0.2478,-0.2338,-0.2349,-0.2335,-0.2321,-0.2221,-0.2219,-0.2217,-0.2222,-0.222,-0.2218,0,0,0,0,0,0,-0.2763,-0.2768,-0.2746,-0.2747,-0.2742,-0.2702,-0.2676,-0.2638,-0.2558,-0.2518,-0.2454,-0.2435,-0.2364,-0.2343,-0.2358,-0.2277,-0.2283,-0.2278,-0.2292,-0.2289,-0.2287,-0.2291,-0.2345,0,0,0,0,0,-0.2764,-0.2768,-0.277,-0.2763,-0.2762,-0.271,-0.2688,-0.2656,-0.2597,-0.2558,-0.2493,-0.2415,-0.2349,-0.2319,-0.2264,-0.2217,-0.2194,-0.2204,-0.2202,-0.2201,-0.2194,-0.219,-0.2188,-0.221,-0.221,-0.221,0,0,-0.2746,-0.2756,-0.2747,-0.2761,-0.2732,-0.2676,-0.2692,-0.2666,-0.262,-0.2557,-0.2451,-0.24,-0.2332,-0.227,-0.224,-0.2249,-0.2168,-0.2198,-0.2198,-0.2191,-0.2188,-0.2186,-0.2184,-0.2209,-0.2209,-0.2209,0,0,-0.2715,-0.2735,-0.2714,-0.2678,-0.2659,-0.2657,-0.2651,-0.2609,-0.2606,-0.2524,-0.2455,-0.2406,-0.2298,-0.2265,-0.2228,-0.219,-0.2154,-0.2166,-0.2164,-0.2161,-0.2159,-0.2158,-0.2071,-0.2062,-0.2174,-0.2174,-0.2174,0,-0.2676,-0.2659,-0.2709,-0.2635,-0.2578,-0.2637,-0.2552,-0.2571,-0.2503,-0.2509,-0.2492,-0.2339,-0.23,-0.2228,-0.2206,-0.2189,-0.2143,-0.2178,-0.216,-0.2159,-0.2157,-0.2069,-0.2059,-0.2174,-0.2174,-0.2174,-0.2174,0,-0.2593,-0.2548,-0.2532,-0.2461,-0.2417,-0.2384,-0.2397,-0.2415,-0.2417,-0.2414,-0.2381,-0.2336,-0.2253,-0.2244,-0.2198,-0.2165,-0.2115,-0.2155,-0.217,-0.2156,-0.2062,-0.2051,-0.2174,-0.2174,-0.2174,-0.2174,0,0,-0.2544,-0.2498,-0.2462,-0.2425,-0.2316,-0.2314,-0.2267,-0.2302,-0.2313,-0.2304,-0.2282,-0.2219,-0.2231,-0.219,-0.2167,-0.2169,-0.2107,-0.2145,-0.2145,-0.2064,-0.2016,-0.1896,-0.1872,-0.2139,-0.2139,-0.2138,-0.1935,0,-0.2452,-0.236,-0.2313,-0.2189,-0.2145,-0.2138,-0.2107,-0.2121,-0.2172,-0.2192,-0.2241,-0.2192,-0.2209,-0.216,-0.2173,-0.2131,-0.2086,-0.2153,-0.2037,-0.2032,-0.1935,-0.1861,-0.1791,-0.1598,-0.1925,-0.1923,-0.1922,0,-0.2304,-0.2308,-0.2173,-0.2139,-0.2112,-0.2028,-0.2031,-0.2004,-0.2062,-0.2089,-0.2085,-0.2114,-0.2098,-0.2125,-0.2072,-0.2104,-0.2037,-0.2018,-0.2011,-0.1895,-0.1894,-0.1676,-0.1567,-0.1904,-0.1906,-0.1907,-0.1908,0,-0.225,-0.2177,-0.2118,-0.2054,-0.2014,-0.1979,-0.1964,-0.196,-0.1968,-0.1999,-0.1985,-0.2019,-0.1995,-0.1986,-0.1955,-0.1996,-0.1882,-0.1946,-0.176,-0.1748,-0.1664,-0.1646,-0.1872,-0.1872,-0.1872,-0.1873,-0.1874,0,-0.2126,-0.2068,-0.2118,-0.2056,-0.2023,-0.1951,-0.1903,-0.191,-0.1888,-0.1854,-0.1915,-0.1886,-0.1962,-0.193,-0.1909,-0.178,-0.1841,-0.1717,-0.1692,-0.1654,-0.1638,-0.191,-0.1917,-0.1865,-0.1867,-0.1869,-0.187,0,-0.1973,-0.1997,-0.195,-0.197,-0.196,-0.1903,-0.1824,-0.1809,-0.1798,-0.1736,-0.1723,-0.1764,-0.1716,-0.1751,-0.1707,-0.1678,-0.1601,-0.1522,-0.1425,-0.1393,-0.1469,-0.1479,-0.13,-0.1294,-0.1289,-0.1285,-0.1282,0,-0.1893,-0.185,-0.186,-0.1828,-0.1811,-0.1763,-0.1703,-0.1712,-0.1676,-0.1647,-0.1602,-0.1572,-0.1546,-0.1436,-0.1366,-0.1263,-0.1395,-0.1127,-0.1217,-0.1418,-0.1413,-0.143,-0.1446,-0.1077,-0.1073,-0.1069,-0.1065,0,-0.1738,-0.1723,-0.1696,-0.1664,-0.161,-0.1579,-0.1523,-0.1511,-0.15,-0.1492,-0.1439,-0.1423,-0.1289,-0.1207,-0.1072,-0.0995,-0.1163,-0.1037,-0.1277,-0.1242,-0.1195,-0.1195,-0.122,-0.103,-0.1034,-0.1036,-0.1038,-0.1039,-0.1595,-0.1549,-0.1518,-0.1474,-0.1424,-0.1385,-0.1348,-0.1337,-0.1305,-0.1269,-0.129,-0.1277,-0.1211,-0.1022,-0.0868,-0.0733,-0.0808,-0.0833,-0.0851,-0.0873,-0.0892,-0.0841,-0.0607,-0.0608,-0.0609,-0.061,-0.061,0,-0.1456,-0.1406,-0.1344,-0.1303,-0.124,-0.1254,-0.1211,-0.1204,-0.1172,-0.1122,-0.1096,-0.1062,-0.0982,-0.0931,-0.0665,-0.0519,-0.0543,-0.0503,-0.0628,-0.066,-0.069,-0.0709,-0.037,-0.0369,-0.0369,-0.0368,0,0,-0.1371,-0.1289,-0.1282,-0.1164,-0.1115,-0.1041,-0.1021,-0.1005,-0.0989,-0.0928,-0.0947,-0.1008,-0.1001,-0.0816,-0.062,-0.049,-0.0569,-0.0415,-0.0606,-0.0791,-0.0821,-0.0863,-0.0924,0,0,0,0,0]},{"header":{"parameterUnit":"m.s-1","parameterCategory":2,"la1":30.2991,"la2":30.254,"lo1":-89.0895,"lo2":-89.0444,"dy":0.0017,"dx":0.0017,"nx":28,"ny":28,"refTime":"2023-07-20T03:00:00:Z","depth":"2","parameterNumber":3,"parameterNumberName":"V-component_of_CURRENTS"},"data":[0,0,0,0,0,0,0,0,0,0,0,0,0,0,0,0,0,0,0,0,0,0,0,0,0,0,0,0,0,0,0,0,0,0,0,0,0,0,0,0,0,0,0,0,0,0,0,0,0,0,0,0,0,0,0,0,0,0,0.0381,0.0382,0,0.0399,0.0399,0.0398,0.0352,0.0351,0.0351,0.035,0.0403,0.0405,0.0407,0,0,0,0,0,0,0,0,0,0,0,0,0,0.0364,0.0363,0.038,0.0382,0.0383,0.0399,0.0399,0.0398,0.0352,0.0351,0.0351,0.035,0.0403,0.0405,0.0407,0,0,0,0,0,0,0,0,0,0,0,0,0,0.0367,0.0363,0.038,0.0369,0.0369,0.0399,0.0399,0.0398,0.0352,0.0351,0.035,0.035,0.0402,0.0405,0.0408,0.0443,0,0,0.0417,0.0418,0,0,0,0,0,0,0,0,0.0366,0.0366,0.0369,0.037,0.037,0.0381,0.0413,0.0418,0.0352,0.0348,0.035,0.0349,0.0406,0.0408,0.04,0.0446,0.0448,0.0417,0.0419,0.042,0.0421,0,0,0,0,0,0,0,0.0366,0.0365,0.0378,0.0371,0.0371,0.0384,0.0381,0.0413,0.0375,0.0349,0.0348,0.0365,0.0405,0.0397,0.0401,0.0449,0.0417,0.0419,0.0421,0.0422,0.0425,0.0424,0,0,0,0,0,0,0.0381,0.0365,0.0378,0.038,0.0377,0.0385,0.0382,0.037,0.0374,0.0376,0.0366,0.0363,0.0392,0.0398,0.0403,0.0361,0.042,0.0423,0.0424,0.0427,0.0425,0.0423,0,0,0,0,0,0,0.038,0.038,0.0377,0.0382,0.0384,0.0387,0.0374,0.0371,0.0341,0.0389,0.0389,0.0337,0.0392,0.0399,0.0366,0.0367,0.0424,0.0427,0.0429,0.0426,0.0424,0.0334,0,0,0,0,0,0,0.0378,0.0379,0.0361,0.0382,0.0384,0.0395,0.0376,0.0373,0.036,0.0355,0.0365,0.037,0.0392,0.0361,0.0369,0.0372,0.0429,0.0431,0.0428,0.0425,0.0339,0.0328,0.032,0,0,0,0,0,0.0377,0.0362,0.0359,0.0361,0.0363,0.0397,0.0397,0.0391,0.0359,0.0355,0.0314,0.0368,0.0349,0.0361,0.0371,0.0375,0.0433,0.0429,0.0425,0.0343,0.033,0.032,0,0,0,0,0,0,0.0358,0.0357,0.0354,0.0341,0.037,0.0392,0.0382,0.0378,0.0342,0.0313,0.0335,0.0337,0.0309,0.0348,0.0361,0.0364,0.0406,0.0404,0.0341,0.0329,0.032,0.0367,0.0431,0,0,0,0,0,0.0347,0.0322,0.0351,0.0345,0.0346,0.0356,0.036,0.0358,0.0345,0.0327,0.0326,0.0317,0.0308,0.0318,0.0319,0.0326,0.0386,0.0337,0.0328,0.0319,0.0362,0.0439,0.0441,0.0411,0.0411,0.0411,0,0,0.0347,0.0341,0.0331,0.0339,0.0342,0.0329,0.0351,0.035,0.0346,0.0342,0.0299,0.0278,0.0294,0.0276,0.0274,0.0309,0.0342,0.0315,0.0307,0.0356,0.0435,0.0439,0.0442,0.0408,0.0409,0.0409,0,0,0.0339,0.0317,0.0293,0.0283,0.0289,0.0305,0.03,0.0302,0.0306,0.0276,0.0252,0.0235,0.0226,0.0245,0.0252,0.0204,0.0274,0.0187,0.02,0.027,0.0275,0.028,0.0292,0.0299,0.02,0.02,0.02,0,0.0337,0.03,0.0302,0.026,0.0237,0.0282,0.0245,0.0274,0.0265,0.0284,0.0253,0.0225,0.0231,0.024,0.0198,0.0193,0.0211,0.0238,0.0262,0.0269,0.0276,0.0288,0.0297,0.0195,0.0196,0.0196,0.0197,0,0.0301,0.0256,0.0239,0.0188,0.0167,0.0154,0.0177,0.0193,0.0192,0.0225,0.0227,0.0212,0.0214,0.0197,0.0175,0.0214,0.0197,0.0226,0.0299,0.0274,0.0286,0.0297,0.0188,0.019,0.0192,0.0193,0,0,0.0317,0.0236,0.0218,0.0189,0.0113,0.0123,0.0108,0.0158,0.0187,0.0196,0.0227,0.02,0.0211,0.0219,0.0201,0.0258,0.0275,0.0246,0.0252,0.0271,0.0376,0.0338,0.0346,0.0293,0.0296,0.0299,0.034,0,0.0291,0.0225,0.016,0.0098,0.0067,0.0051,0.0048,0.0085,0.0121,0.0175,0.0237,0.0235,0.022,0.0186,0.0246,0.0263,0.0311,0.0259,0.0389,0.0393,0.0376,0.0362,0.0521,0.0571,0.0351,0.0353,0.0355,0,0.0239,0.0216,0.0139,0.0082,0.0063,0.0026,0.0033,0.0035,0.0127,0.0146,0.0185,0.0218,0.0271,0.0265,0.0361,0.0312,0.0343,0.0377,0.038,0.0407,0.038,0.0574,0.0601,0.0375,0.0373,0.0372,0.037,0,0.0258,0.0184,0.0141,0.0098,0.0047,0.0026,0.0011,0.0035,0.0052,0.0125,0.0133,0.0223,0.0242,0.0328,0.0366,0.0359,0.0479,0.0494,0.0501,0.0496,0.0699,0.0707,0.0603,0.0603,0.0603,0.0603,0.0603,0,0.0224,0.0192,0.0165,0.0131,0.0112,0.0039,0.002,0.0033,0.0043,0.0067,0.0114,0.0153,0.026,0.0332,0.0384,0.046,0.05,0.052,0.0526,0.0657,0.066,0.0564,0.0559,0.0605,0.0604,0.0604,0.0604,0,0.0218,0.0188,0.0156,0.0122,0.0102,0.0082,-0.0004,0.001,-0.0003,0.0019,0.0028,0.0115,0.0189,0.0274,0.0404,0.0464,0.055,0.0567,0.0669,0.0687,0.0512,0.0501,0.0609,0.0608,0.0608,0.0607,0.0607,0,0.0223,0.0199,0.0153,0.0136,0.0108,0.0067,0.0033,-0.0011,-0.0017,0.0004,0.0034,0.0097,0.0172,0.0318,0.0489,0.0597,0.0521,0.0731,0.0778,0.0529,0.0524,0.0513,0.0504,0.0985,0.0988,0.099,0.0992,0,0.0252,0.0218,0.0206,0.0161,0.0119,0.0068,0.002,0.0008,-0.0028,-0.0005,0.0054,0.0111,0.0284,0.0518,0.062,0.0697,0.0728,0.0776,0.0562,0.0927,0.0879,0.0874,0.0854,0.1013,0.1011,0.1009,0.1008,0.1007,0.0285,0.029,0.026,0.0217,0.0155,0.0088,0.0061,0.0025,0.0016,0.0026,0.0082,0.0241,0.0429,0.0716,0.0755,0.085,0.0871,0.0918,0.0915,0.0908,0.0912,0.0864,0.0992,0.099,0.0988,0.0987,0.0985,0,0.0364,0.0343,0.0319,0.0268,0.0216,0.0141,0.0076,0.0055,0.0056,0.0062,0.0102,0.0404,0.0666,0.0804,0.1074,0.1112,0.1122,0.1017,0.1096,0.1084,0.1071,0.1082,0.1207,0.1205,0.1204,0.1202,0,0,0.0398,0.042,0.0408,0.0361,0.0291,0.0211,0.017,0.0107,0.0103,0.0105,0.0272,0.0437,0.0765,0.0925,0.1019,0.1127,0.101,0.108,0.0942,0.1014,0.0993,0.1109,0.1125,0,0,0,0,0]}],[{"header":{"parameterUnit":"m.s-1","parameterCategory":2,"la1":30.2991,"la2":30.254,"lo1":-89.0895,"lo2":-89.0444,"dy":0.0017,"dx":0.0017,"nx":28,"ny":28,"refTime":"2023-07-20T03:00:00:Z","depth":"4","parameterNumber":2,"parameterNumberName":"U-component_of_CURRENTS"},"data":[0,0,0,0,0,0,0,0,0,0,0,0,0,0,0,0,0,0,0,0,0,0,0,0,0,0,0,0,0,0,0,0,0,0,0,0,0,0,0,0,0,0,0,0,0,0,0,0,0,0,0,0,0,0,0,0,0,0,-0.1102,-0.1103,0,-0.115,-0.115,-0.1151,-0.1159,-0.1159,-0.1159,-0.1159,-0.1255,-0.1257,-0.126,0,0,0,0,0,0,0,0,0,0,0,0,0,-0.1043,-0.1044,-0.1102,-0.1103,-0.1104,-0.115,-0.115,-0.1151,-0.1159,-0.1159,-0.1159,-0.1159,-0.1254,-0.1257,-0.126,0,0,0,0,0,0,0,0,0,0,0,0,0,-0.1074,-0.1044,-0.1102,-0.1117,-0.1119,-0.115,-0.115,-0.1151,-0.1159,-0.1159,-0.1159,-0.1159,-0.1253,-0.1257,-0.126,-0.1284,0,0,-0.1272,-0.1274,0,0,0,0,0,0,0,0,-0.1072,-0.1075,-0.1114,-0.1116,-0.1119,-0.1153,-0.1165,-0.1199,-0.1159,-0.114,-0.1159,-0.1159,-0.1228,-0.1234,-0.1236,-0.1288,-0.1292,-0.1272,-0.1275,-0.1276,-0.1277,0,0,0,0,0,0,0,-0.107,-0.1073,-0.1117,-0.1115,-0.1118,-0.1131,-0.1134,-0.1171,-0.1181,-0.1141,-0.1143,-0.1155,-0.1229,-0.1232,-0.1238,-0.1294,-0.1272,-0.1276,-0.1278,-0.1279,-0.1396,-0.1397,0,0,0,0,0,0,-0.1071,-0.1071,-0.1115,-0.1119,-0.11,-0.1132,-0.1136,-0.1138,-0.1179,-0.1186,-0.1155,-0.1156,-0.1226,-0.1234,-0.1242,-0.1315,-0.1276,-0.128,-0.1282,-0.1395,-0.1396,-0.1397,0,0,0,0,0,0,-0.1069,-0.1074,-0.1113,-0.11,-0.1107,-0.1133,-0.1136,-0.1139,-0.116,-0.119,-0.1197,-0.1175,-0.1226,-0.1237,-0.1289,-0.1318,-0.1281,-0.1285,-0.1394,-0.1395,-0.1397,-0.1435,0,0,0,0,0,0,-0.1067,-0.1073,-0.1089,-0.11,-0.1108,-0.1135,-0.1136,-0.114,-0.1169,-0.117,-0.121,-0.1217,-0.1227,-0.1284,-0.1293,-0.1322,-0.1288,-0.1393,-0.1395,-0.1396,-0.1433,-0.1438,-0.1442,0,0,0,0,0,-0.1065,-0.1075,-0.1089,-0.1096,-0.1124,-0.1136,-0.114,-0.1157,-0.117,-0.1176,-0.1211,-0.1217,-0.1299,-0.1288,-0.1299,-0.133,-0.1392,-0.1394,-0.1396,-0.1431,-0.1437,-0.1442,0,0,0,0,0,0,-0.1057,-0.1078,-0.1093,-0.1111,-0.1128,-0.1139,-0.1154,-0.117,-0.1201,-0.1216,-0.1236,-0.1246,-0.1308,-0.1309,-0.1295,-0.1364,-0.1344,-0.1348,-0.1367,-0.1372,-0.1377,-0.1369,-0.1291,0,0,0,0,0,-0.1065,-0.108,-0.11,-0.1117,-0.1125,-0.1146,-0.1161,-0.1177,-0.1202,-0.1215,-0.1238,-0.1273,-0.1321,-0.1338,-0.1375,-0.1413,-0.1401,-0.1435,-0.144,-0.1443,-0.1443,-0.1465,-0.1471,-0.1403,-0.1403,-0.1403,0,0,-0.1069,-0.1084,-0.1095,-0.1118,-0.1131,-0.1141,-0.1153,-0.1181,-0.1201,-0.1224,-0.1258,-0.1301,-0.1338,-0.1385,-0.141,-0.139,-0.1451,-0.1446,-0.1449,-0.1446,-0.1467,-0.1474,-0.148,-0.1404,-0.1404,-0.1404,0,0,-0.1068,-0.1094,-0.1101,-0.1115,-0.1148,-0.1158,-0.1171,-0.1193,-0.1215,-0.1262,-0.1291,-0.1337,-0.1395,-0.1415,-0.144,-0.1486,-0.1486,-0.151,-0.1517,-0.1538,-0.1544,-0.1549,-0.1517,-0.1519,-0.1498,-0.1498,-0.1498,0,-0.1074,-0.1084,-0.1106,-0.1113,-0.1128,-0.1165,-0.1173,-0.1201,-0.1241,-0.127,-0.1277,-0.1383,-0.1403,-0.1472,-0.1485,-0.1496,-0.1501,-0.1497,-0.1544,-0.1549,-0.1554,-0.152,-0.1522,-0.15,-0.15,-0.1499,-0.1499,0,-0.1066,-0.1087,-0.109,-0.1109,-0.1128,-0.1145,-0.1181,-0.1213,-0.1253,-0.1286,-0.1373,-0.1412,-0.1474,-0.1487,-0.1504,-0.1559,-0.1548,-0.156,-0.1531,-0.1563,-0.1525,-0.1526,-0.1503,-0.1502,-0.1501,-0.1501,0,0,-0.1043,-0.1076,-0.1082,-0.1091,-0.1131,-0.114,-0.1185,-0.1231,-0.1268,-0.1332,-0.1377,-0.1464,-0.1511,-0.1539,-0.1575,-0.1578,-0.1597,-0.1587,-0.1587,-0.1553,-0.1623,-0.1442,-0.1425,-0.1639,-0.164,-0.1641,-0.1574,0,-0.103,-0.1035,-0.1064,-0.1081,-0.1083,-0.1136,-0.1172,-0.123,-0.1283,-0.1332,-0.1412,-0.1469,-0.1528,-0.156,-0.1597,-0.1617,-0.1607,-0.1612,-0.1598,-0.1596,-0.1431,-0.1423,-0.1645,-0.1574,-0.1575,-0.1575,-0.1575,0,-0.101,-0.1018,-0.1023,-0.1068,-0.1076,-0.1099,-0.1162,-0.1205,-0.1296,-0.1348,-0.1446,-0.1495,-0.1567,-0.1577,-0.1651,-0.1667,-0.1649,-0.1635,-0.1633,-0.1451,-0.1417,-0.1542,-0.1576,-0.1576,-0.1576,-0.1576,-0.1576,0,-0.0966,-0.0995,-0.0996,-0.1007,-0.1058,-0.1088,-0.1131,-0.1215,-0.1255,-0.1354,-0.1382,-0.1509,-0.1555,-0.1601,-0.1603,-0.1644,-0.1616,-0.1664,-0.147,-0.1456,-0.1626,-0.1621,-0.1661,-0.1661,-0.1662,-0.1662,-0.1662,0,-0.0932,-0.0943,-0.0979,-0.0981,-0.1004,-0.1062,-0.1104,-0.1176,-0.1255,-0.1291,-0.1402,-0.1422,-0.1568,-0.1571,-0.1586,-0.1519,-0.1616,-0.1454,-0.1428,-0.1638,-0.1636,-0.1624,-0.162,-0.1659,-0.166,-0.166,-0.1661,0,-0.089,-0.091,-0.0919,-0.0966,-0.0984,-0.1008,-0.1079,-0.1105,-0.1202,-0.1242,-0.1266,-0.1375,-0.1386,-0.1439,-0.1462,-0.1458,-0.1406,-0.1334,-0.1498,-0.1486,-0.1241,-0.1241,-0.1154,-0.1147,-0.1142,-0.1137,-0.1133,0,-0.0861,-0.0862,-0.0898,-0.0895,-0.092,-0.0958,-0.0981,-0.1081,-0.1097,-0.1183,-0.1179,-0.1205,-0.1258,-0.116,-0.1235,-0.1206,-0.1191,-0.1164,-0.1263,-0.1205,-0.1191,-0.1199,-0.1207,-0.1123,-0.1122,-0.112,-0.1119,0,-0.0809,-0.0833,-0.0835,-0.0835,-0.0848,-0.0851,-0.0888,-0.0893,-0.099,-0.1072,-0.1057,-0.1045,-0.1026,-0.1058,-0.1005,-0.0998,-0.1205,-0.1104,-0.1119,-0.1212,-0.1167,-0.116,-0.1174,-0.1098,-0.1101,-0.1103,-0.1104,0,-0.0772,-0.0756,-0.0756,-0.0757,-0.0754,-0.0726,-0.0772,-0.0773,-0.0805,-0.0914,-0.089,-0.0927,-0.1003,-0.0937,-0.0894,-0.0862,-0.0888,-0.0905,-0.0932,-0.0954,-0.0919,-0.0835,-0.0622,0,0,0,0,0,-0.0719,-0.0687,-0.0672,-0.0638,-0.0634,-0.0634,-0.0683,-0.0732,-0.0819,-0.0779,-0.084,-0.0804,-0.0771,-0.0782,-0.0712,-0.079,-0.0879,-0.0702,-0.0911,-0.0985,-0.1009,-0.0985,0,0,0,0,0,0,-0.0672,-0.0652,-0.0636,-0.0533,-0.0492,-0.047,-0.0503,-0.0577,-0.0561,-0.0666,-0.0648,-0.0725,-0.0696,-0.0781,-0.0681,-0.0682,-0.0792,-0.0726,-0.0723,-0.0972,-0.0993,-0.1012,-0.0996,0,0,0,0,0]},{"header":{"parameterUnit":"m.s-1","parameterCategory":2,"la1":30.2991,"la2":30.254,"lo1":-89.0895,"lo2":-89.0444,"dy":0.0017,"dx":0.0017,"nx":28,"ny":28,"refTime":"2023-07-20T03:00:00:Z","depth":"4","parameterNumber":3,"parameterNumberName":"V-component_of_CURRENTS"},"data":[0,0,0,0,0,0,0,0,0,0,0,0,0,0,0,0,0,0,0,0,0,0,0,0,0,0,0,0,0,0,0,0,0,0,0,0,0,0,0,0,0,0,0,0,0,0,0,0,0,0,0,0,0,0,0,0,0,0,-0.0105,-0.0105,0,-0.0092,-0.0091,-0.0091,-0.0049,-0.0048,-0.0047,-0.0046,0.0001,0.0001,0.0002,0,0,0,0,0,0,0,0,0,0,0,0,0,-0.0078,-0.0079,-0.0105,-0.0105,-0.0105,-0.0092,-0.0091,-0.0091,-0.0049,-0.0048,-0.0047,-0.0046,0.0001,0.0001,0.0002,0,0,0,0,0,0,0,0,0,0,0,0,0,-0.0079,-0.0079,-0.0105,-0.0083,-0.0081,-0.0092,-0.0091,-0.0091,-0.0049,-0.0048,-0.0047,-0.0046,0.0,0.0001,0.0002,-0.002,0,0,0.0004,0.0004,0,0,0,0,0,0,0,0,-0.0079,-0.008,-0.0086,-0.0085,-0.0082,-0.0071,-0.0065,-0.0066,-0.005,-0.0061,-0.0046,-0.0045,-0.0022,-0.0019,-0.0019,-0.0018,-0.0016,0.0004,0.0004,0.0005,0.0005,0,0,0,0,0,0,0,-0.0079,-0.008,-0.0099,-0.0086,-0.0084,-0.0068,-0.0067,-0.0065,-0.0047,-0.0059,-0.0057,-0.0057,-0.002,-0.002,-0.0017,-0.0015,0.0004,0.0004,0.0005,0.0005,-0.0042,-0.0044,0,0,0,0,0,0,-0.0085,-0.0081,-0.0099,-0.0099,-0.0078,-0.007,-0.0068,-0.0076,-0.0048,-0.0043,-0.0058,-0.0055,-0.0021,-0.0018,-0.0015,-0.0041,0.0005,0.0005,0.0006,-0.0041,-0.0043,-0.0044,0,0,0,0,0,0,-0.0085,-0.0087,-0.01,-0.0089,-0.009,-0.0072,-0.008,-0.0076,-0.0071,-0.0047,-0.0041,-0.0057,-0.002,-0.0016,-0.0012,-0.0038,0.0006,0.0006,-0.0039,-0.0041,-0.0044,-0.009,0,0,0,0,0,0,-0.0084,-0.0087,-0.0094,-0.009,-0.0091,-0.0111,-0.0081,-0.0077,-0.0074,-0.007,-0.0045,-0.0039,-0.0019,-0.0014,-0.0012,-0.0036,0.0007,-0.0036,-0.004,-0.0043,-0.0086,-0.0094,-0.01,0,0,0,0,0,-0.0083,-0.0105,-0.0094,-0.0096,-0.0101,-0.0112,-0.0111,-0.0093,-0.0075,-0.0082,-0.0061,-0.004,-0.0033,-0.0014,-0.0012,-0.0037,-0.0035,-0.0039,-0.0042,-0.0083,-0.0092,-0.01,0,0,0,0,0,0,-0.0098,-0.0103,-0.0091,-0.0112,-0.0111,-0.0105,-0.0115,-0.0098,-0.0088,-0.008,-0.0052,-0.0046,-0.0051,-0.0044,-0.0025,-0.0063,-0.0035,-0.0038,-0.0067,-0.0075,-0.0082,-0.0091,0.0007,0,0,0,0,0,-0.0105,-0.0119,-0.0118,-0.0133,-0.0139,-0.0126,-0.0127,-0.0112,-0.0104,-0.0097,-0.0088,-0.0077,-0.0069,-0.007,-0.0062,-0.0084,-0.0041,-0.0103,-0.011,-0.0116,-0.0124,-0.0077,-0.0079,-0.0057,-0.0057,-0.0057,0,0,-0.0115,-0.0118,-0.0126,-0.0137,-0.0137,-0.0157,-0.0124,-0.0131,-0.0142,-0.0095,-0.0117,-0.0095,-0.0077,-0.0094,-0.0099,-0.009,-0.0098,-0.0121,-0.0125,-0.013,-0.0081,-0.0082,-0.0084,-0.0059,-0.0059,-0.0058,0,0,-0.0143,-0.0149,-0.0168,-0.0178,-0.0179,-0.0177,-0.0181,-0.0182,-0.0178,-0.0191,-0.0158,-0.016,-0.0157,-0.0156,-0.015,-0.0199,-0.0129,-0.0193,-0.0241,-0.0196,-0.0196,-0.0196,-0.0128,-0.0122,-0.0206,-0.0206,-0.0206,0,-0.0153,-0.0176,-0.0175,-0.02,-0.0216,-0.0192,-0.0219,-0.022,-0.0217,-0.0224,-0.0206,-0.0205,-0.0195,-0.0207,-0.0221,-0.0216,-0.0155,-0.0205,-0.0201,-0.0201,-0.02,-0.013,-0.0123,-0.0209,-0.0208,-0.0208,-0.0208,0,-0.0194,-0.0215,-0.0234,-0.0258,-0.0277,-0.0296,-0.0302,-0.0318,-0.0311,-0.0304,-0.0313,-0.0295,-0.0296,-0.0296,-0.027,-0.0271,-0.0216,-0.0203,-0.0172,-0.0204,-0.013,-0.0121,-0.0212,-0.0211,-0.0211,-0.021,0,0,-0.0213,-0.0252,-0.0259,-0.0281,-0.0308,-0.0329,-0.0366,-0.0387,-0.0407,-0.04,-0.0423,-0.0417,-0.0392,-0.0385,-0.0355,-0.0324,-0.0268,-0.026,-0.0256,-0.0179,-0.0125,-0.0046,-0.0028,-0.0228,-0.0227,-0.0227,-0.0068,0,-0.0241,-0.0292,-0.031,-0.0368,-0.0397,-0.0412,-0.045,-0.0466,-0.0471,-0.049,-0.0465,-0.0471,-0.0427,-0.0425,-0.0385,-0.0298,-0.0248,-0.031,-0.0119,-0.0113,-0.0028,-0.0018,-0.0224,-0.0061,-0.0059,-0.0057,-0.0056,0,-0.0275,-0.0304,-0.0361,-0.0421,-0.0439,-0.0475,-0.0536,-0.0563,-0.0579,-0.0578,-0.0571,-0.0543,-0.0514,-0.0471,-0.0328,-0.0353,-0.0245,-0.017,-0.0162,-0.0068,-0.0019,-0.0029,-0.0039,-0.0041,-0.0042,-0.0043,-0.0044,0,-0.0284,-0.0346,-0.0392,-0.0414,-0.0476,-0.0516,-0.0553,-0.059,-0.0615,-0.0633,-0.0638,-0.0592,-0.0567,-0.0439,-0.0292,-0.0296,-0.0106,-0.01,0.0077,0.0085,-0.0012,-0.0014,0.0011,0.0011,0.0011,0.001,0.001,0,-0.0309,-0.0352,-0.0401,-0.043,-0.0498,-0.0537,-0.0604,-0.0636,-0.0667,-0.0679,-0.0674,-0.0653,-0.0551,-0.0438,-0.0294,-0.0067,-0.0101,0.008,0.013,-0.0035,-0.0041,-0.0003,-0.0007,0.0016,0.0015,0.0014,0.0013,0,-0.0322,-0.0349,-0.0409,-0.0477,-0.0505,-0.0558,-0.0638,-0.0676,-0.0698,-0.0715,-0.0721,-0.0685,-0.0523,-0.039,-0.0186,-0.0064,0.0126,0.0217,0.0048,0.0084,0.0291,0.0282,0.0426,0.043,0.0434,0.0437,0.0439,0,-0.0336,-0.0361,-0.044,-0.048,-0.0518,-0.0591,-0.0639,-0.0689,-0.0707,-0.0707,-0.0695,-0.0597,-0.0533,-0.019,-0.0053,0.0227,0.0267,0.0354,0.0303,0.0299,0.0333,0.0318,0.0306,0.0445,0.0446,0.0447,0.0447,0,-0.0362,-0.0385,-0.0433,-0.0499,-0.056,-0.0628,-0.0682,-0.0691,-0.0718,-0.0734,-0.0638,-0.051,-0.0325,-0.0129,0.0082,0.0279,0.0281,0.0391,0.0385,0.0337,0.0323,0.035,0.0333,0.0459,0.0458,0.0457,0.0456,0,-0.0381,-0.0417,-0.0463,-0.052,-0.0591,-0.0636,-0.0674,-0.0663,-0.0677,-0.0647,-0.06,-0.0446,-0.0372,-0.0095,0.0107,0.0297,0.0344,0.0384,0.0378,0.0367,0.0293,0.0263,0.0434,0,0,0,0,0,-0.0393,-0.0423,-0.048,-0.0547,-0.0607,-0.0637,-0.0686,-0.0705,-0.0704,-0.0619,-0.0605,-0.0421,-0.0142,-0.0049,0.0165,0.0169,0.0363,0.0424,0.0403,0.0526,0.0512,0.0441,0,0,0,0,0,0,-0.0406,-0.0455,-0.0474,-0.0537,-0.0575,-0.0644,-0.0667,-0.0676,-0.0612,-0.0587,-0.0437,-0.0362,-0.0094,-0.0254,0.0171,0.0223,0.0241,0.0549,0.0554,0.0534,0.0521,0.051,0.0432,0,0,0,0,0]}]]